This is the latest recevied weather packets stored in our database for station/object KR4CWL-13. If no packets are shown the sender has not sent any weather packets the latest 10 day(s).
| Time | Temp. | Humidity | Pressure | Rain* | Wind** | Luminosity | Snow |
|---|---|---|---|---|---|---|---|
| 1777596230 | 17.22° C | 78% | 1003 hPa | 0 mm | - | - | - |
| 1777595630 | 17.78° C | 76% | 1003 hPa | 0 mm | - | - | - |
| 1777595030 | 17.78° C | 75% | 1002.7 hPa | 0 mm | - | - | - |
| 1777594430 | 18.33° C | 72% | 1002.7 hPa | 0 mm | - | - | - |
| 1777593830 | 18.89° C | 74% | 1002.7 hPa | 0 mm | - | - | - |
| 1777593230 | 19.44° C | 66% | 1002.4 hPa | 0 mm | - | - | - |
| 1777592630 | 20° C | 67% | 1002.4 hPa | 0 mm | - | - | - |
| 1777592030 | 20° C | 68% | 1002 hPa | 0 mm | - | - | - |
| 1777591430 | 20.56° C | 63% | 1002 hPa | 0 mm | - | - | - |
| 1777590830 | 21.11° C | 59% | 1002 hPa | 0 mm | - | - | - |
| 1777590230 | 21.11° C | 56% | 1001.7 hPa | 0 mm | - | - | - |
| 1777589630 | 21.11° C | 58% | 1001.7 hPa | 0 mm | - | - | - |
| 1777589030 | 21.11° C | 57% | 1001.7 hPa | 0 mm | - | - | - |
| 1777588430 | 21.67° C | 57% | 1001.7 hPa | 0 mm | - | - | - |
| 1777587830 | 21.67° C | 56% | 1001.7 hPa | 0 mm | - | - | - |
| 1777587230 | 22.22° C | 57% | 1001.7 hPa | 0 mm | - | - | - |
| 1777586630 | 22.22° C | 51% | 1001.7 hPa | 0 mm | - | - | - |
| 1777586029 | 22.22° C | 53% | 1001.4 hPa | 0 mm | - | - | - |
| 1777585429 | 22.22° C | 52% | 1001.4 hPa | 0 mm | - | - | - |
| 1777584829 | 22.22° C | 53% | 1001.4 hPa | 0 mm | - | - | - |
| 1777584229 | 22.22° C | 51% | 1001.4 hPa | 0 mm | - | - | - |
| 1777583629 | 22.22° C | 52% | 1001.4 hPa | 0 mm | - | - | - |
| 1777583029 | 21.67° C | 58% | 1001.4 hPa | 0 mm | - | - | - |
| 1777582429 | 21.67° C | 59% | 1001 hPa | 0 mm | - | - | - |
| 1777581829 | 21.67° C | 55% | 1001.4 hPa | 0 mm | - | - | - |
* Rain since midnight (hover to see other rain measurements)
** Current wind speed in m/s (hover to see current wind gust speed)